Retour au catalogue

IUS R/B(2)

ActifGEO
NORAD 22316·ROCKET BODY·🇺🇸 United States

Lancé Jan 13, 1993 depuis Cape Canaveral Space Force Station

Loading…

TLE

FraisSource: Space-Track

Époque: Aug 28, 2026, 05:42 UTC

1 22316U 93003D   26240.23799617 -.00000224  00000-0  00000+0 0  9995
2 22316  11.8165 344.1055 0067667 127.0689 231.0290  1.00102724127908

Suivez IUS R/B(2) en temps réel avec AllMySat

Download on the App Store